This demonstration page uses our WeatherBlox Daily Observations layout. Learn more.

Left ArrowRight Arrow

44.89941, -97.11507

Hourly Observations for February 13, 2021

Temp ( °F °C ) Dew Point ( °F °C ) Humidity (%) Winds ( mph kmh ) Pressure ( in mb ) Visibility ( mi km ) Precip ( " mm )
12:53 am 00:53 Clear -7 -21.7 -15 -26.1 68 68 S 3 6 30.58 1035 10 16 0.00 0.00
1:53 am 01:53 Clear -7 -21.7 -15 -26.1 68 68 Calm 30.56 1035 10 16 0.00 0.00
2:53 am 02:53 Clear -8 -22.2 -15 -26.1 71 71 SW 3 6 30.57 1035 10 16 0.00 0.00
3:53 am 03:53 Clear -9 -22.8 -15 -26.1 75 75 W 5 7 30.56 1035 10 16 0.00 0.00
4:53 am 04:53 Clear -10 -23.3 -16 -26.7 74 74 Calm 30.55 1035 10 16 0.00 0.00
5:53 am 05:53 Clear -13 -25 -17 -27.2 82 82 Calm 30.56 1035 10 16 0.00 0.00
6:53 am 06:53 Partly Cloudy -14 -25.6 -19 -28.3 78 78 NW 6 9 30.57 1035 10 16 0.00 0.00
7:53 am 07:53 Partly Cloudy -16 -26.7 -20 -28.9 82 82 NW 6 9 30.59 1036 10 16 0.00 0.00
8:53 am 08:53 Sunny -15 -26.1 -20 -28.9 77 77 NNE 3 6 30.59 1036 10 16 0.00 0.00
9:53 am 09:53 Sunny -11 -23.9 -17 -27.2 74 74 Calm 30.58 1036 10 16 0.00 0.00
10:53 am 10:53 Sunny -9 -22.8 -19 -28.3 61 61 NNW 9 15 30.59 1036 10 16 0.00 0.00
11:53 am 11:53 Sunny -8 -22.2 -19 -28.3 58 58 NW 10 17 30.59 1036 10 16 0.00 0.00
12:53 pm 12:53 Mostly Sunny -7 -21.7 -17 -27.2 61 61 NW 12 19 30.56 1035 10 16 0.00 0.00
1:53 pm 13:53 Sunny -7 -21.7 -16 -26.7 64 64 WNW 12 19 30.55 1034 10 16 0.00 0.00
2:21 pm 14:21 Mostly Cloudy -7 -21.7 -16 -26.7 64 64 WNW 14 22 30.64 1038 9 14 0.00 0.00
2:38 pm 14:38 Cloudy with Haze -8 -22.2 -15 -26.1 71 71 WNW 13 20 30.65 1038 2 3 0.00 0.00
2:53 pm 14:53 Cloudy with Haze -8 -22.2 -14 -25.6 74 74 NW 12 19 30.56 1035 2 3 0.00 0.00
3:08 pm 15:08 Cloudy with Light Snow -7 -21.7 -14 -25.6 71 71 NNW 15 24 30.64 1038 1 1 0.00 0.00
3:23 pm 15:23 Cloudy with Haze -8 -22.2 -16 -26.7 67 67 NW 14 22 30.66 1038 2 2 0.00 0.00
3:28 pm 15:28 Cloudy with Haze -8 -22.2 -16 -26.7 67 67 NW 14 22 30.65 1038 3 5 0.00 0.00
3:53 pm 15:53 Mostly Cloudy with Haze -9 -22.8 -18 -27.8 64 64 NW 12 19 30.57 1035 5 8 0.00 0.00
4:36 pm 16:36 Partly Cloudy -10 -23.3 -18 -27.8 67 67 NNW 16 26 30.67 1039 9 14 0.00 0.00
4:53 pm 16:53 Sunny -11 -23.9 -20 -28.9 63 63 NNW 15 24 30.58 1035 10 16 0.00 0.00
5:53 pm 17:53 Sunny -14 -25.6 -22 -30 67 67 N 12 19 30.58 1036 10 16 0.00 0.00
6:53 pm 18:53 Clear -18 -27.8 -25 -31.7 69 69 N 9 15 30.63 1037 10 16 0.00 0.00
7:53 pm 19:53 Clear -20 -28.9 -26 -32.2 73 73 N 9 15 30.65 1038 10 16 0.00 0.00
8:53 pm 20:53 Clear -21 -29.4 -27 -32.8 72 72 N 10 17 30.67 1039 10 16 0.00 0.00
9:53 pm 21:53 Clear -20 -28.9 -28 -33.3 66 66 N 10 17 30.68 1039 10 16 0.00 0.00
10:53 pm 22:53 Clear -21 -29.4 -28 -33.3 69 69 N 9 15 30.70 1040 10 16 0.00 0.00
11:53 pm 23:53 Clear -23 -30.6 -29 -33.9 73 73 N 9 15 30.72 1040 10 16 0.00 0.00

Powered by AerisWeather